Regional Weather Roundup
Issued by NWS State College, PA

Home | Current Version | Previous Version | Graphics & Text | Print | Product List | Glossary On
Versions: 1 2 3 4 5 6 7 8 9 10 11 12 13 14 15 16 17 18 19 20 21 22 23 24 25 26 27 28 29 30 31 32 33 34 35 36 37 38 39 40 41 42 43 44 45 46 47 48 49 50
000
ASUS41 KCTP 031910
RWRCTP

REGIONAL WEATHER ROUNDUP
NATIONAL WEATHER SERVICE STATE COLLEGE PA
300 PM EDT THU SEP 03 2015

Note: "fair" indicates few or no clouds below 12,000 feet with no
significant weather and/or obstructions to visibility.

* = STATION THAT DOES NOT REPORT PRECIPITATION /E.G. RAIN...SNOW...ETC/
    THUNDER OR FOG.

PAZ002>004-007>009-013>016-020>023-029>032-032000-
WESTERN PENNSYLVANIA

CITY           SKY/WX    TMP DP  RH WIND       PRES   REMARKS
ERIE           SUNNY     81  69  67 NW12      29.95F
MEADVILLE      MOSUNNY   85  69  58 W7        29.97F
FRANKLIN*      MOSUNNY   84  70  61 W3        29.99F
NEW CASTLE     FAIR      88  72  58 NW5       29.95F
BEAVER COUNTY  MOSUNNY   88  66  48 N7        29.96F
BUTLER*        MOSUNNY   88  68  51 W7        29.97F
PITTSBURGH INT PTSUNNY   88  65  46 W9        29.95F
PITTSBURGH     TSTM      83  60  45 E6        29.95F
INDIANA*       SUNNY     84  66  54 CALM      30.00F
LATROBE        NOT AVBL
WASHINGTON CO* MOSUNNY   88  64  45 N6        29.97F
$$

PAZ004>006-010>012-017>019-024>028-033>037-041-042-045-046-049>053-032000-
CENTRAL PENNSYLVANIA

CITY           SKY/WX    TMP DP  RH WIND       PRES   REMARKS
BRADFORD       MOSUNNY   84  64  50 CALM      30.00F
DUBOIS         MOSUNNY   86  63  45 CALM      29.97F
CLEARFIELD     MOSUNNY   86  63  45 CALM      29.97F
JOHNSTOWN      PTSUNNY   82  62  50 NW8       30.01F
ALTOONA        PTSUNNY   87  61  41 VRB3      29.97F
STATE COLLEGE  MOSUNNY   86  64  48 CALM      29.95F
WILLIAMSPORT   MOSUNNY   88  67  49 SW7       29.88F
SELINSGROVE    MOSUNNY   91  66  43 VRB3      29.89F
FT INDIANTOWN  SUNNY     90  65  42 VRB3      29.89F
CAPITAL CITY   MOSUNNY   91  63  39 N7        29.88F
HARRISBURG     MOSUNNY   91  65  41 W8        29.87F
YORK           SUNNY     89  66  46 N10       29.89F
$$

PAZ038>040-043-044-047-048-054-055-060>062-067>071-032000-
EASTERN PENNSYLVANIA

CITY           SKY/WX    TMP DP  RH WIND       PRES   REMARKS
SCRANTON       MOSUNNY   90  67  46 W8        29.90F
MOUNT POCONO   MOSUNNY   84  64  50 N8        29.96F
ALLENTOWN      MOSUNNY   92  67  43 CALM      29.87  HX  95
QUAKERTOWN*    PTCLDY    91  66  43 N6        29.89S
READING        MOSUNNY   90  64  42 VRB5      29.87F
LANCASTER      MOSUNNY   89  64  43 VRB6      29.88F
COATESVILLE    CLEAR     90  64  43 N5        29.90F
POTTSTOWN      MOSUNNY   90  66  45 VRB5      29.88F
BLUE BELL      SUNNY     91  66  43 N6        29.86S
DOYLESTOWN     SUNNY     89  64  43 N8        29.87S
WILLOW GROVE   NOT AVBL
NORTH PHILA    SUNNY     94  58  29 MISG      29.87S
PHILADELPHIA   MOSUNNY   94  61  33 N12G17    29.85S
$$


USA.gov is the U.S. government's official web portal to all federal, state and local government web resources and services.